Hamburg-Finkenwerder Airport EDHI

Flugplatz Daten

Name: Hamburg-Finkenwerder Airport

Ident: EDHI

Lat: 53,53527832

Long: 9,83555603

Platzhöhe: 23 ft

IataCode: XFW

City: Hamburg

Metar

2022/08/10 20:20
EDHI 102020Z AUTO 07007KT 9999 // NCD 22/13 Q1025

Taf

Gewünschte Webcam nicht vorhanden? Dann fügen Sie eine hinzu. Sie wird dann so schnell wie möglich freigeschaltet
Url: Title: